DateTimeUTC,F1_A11,F1_S11,BsB_S11,BsG_S11,BsR_S11,BbsB_S11,BbsG_S11,BbsR_S11,BaB_A11,BaG_A11,BaR_A11,Tu_S11,T_S11,Uu_S11,U_S11,P_S11,T1_A11
2021-02-04T16:00:00Z,00000200,21000000,,,,,,,0000.45,0000.22,0000.13,16.9,23.8,00.9,00.6,0623.6,31.0
2021-02-04T16:01:00Z,00000200,21000000,,,,,,,-000.40,-000.46,-000.08,16.9,23.8,00.9,00.6,0623.6,31.0
2021-02-04T16:02:00Z,00000200,21000000,,,,,,,0000.24,0000.21,0000.14,16.9,23.8,00.9,00.6,0623.7,31.0
2021-02-04T16:03:00Z,00000200,61000000,,,,,,,0000.03,0000.13,0000.08,16.9,23.8,00.9,00.6,0623.7,31.0
2021-02-04T16:04:00Z,00000200,41000000,-000.13,-000.01,0000.32,0000.27,-000.02,0000.24,-000.21,-000.33,-000.28,17.0,23.7,01.1,00.7,0624.9,31.0
2021-02-04T16:05:00Z,00000200,01000000,-000.88,0000.16,0000.14,-000.08,-000.10,0000.18,0000.34,-000.08,0000.18,17.1,23.7,01.2,00.8,0624.9,31.0
2021-02-04T16:06:00Z,00000200,01000000,-000.41,0000.05,0000.30,-000.16,-000.15,-000.02,0000.20,0000.44,-000.02,17.0,23.6,01.1,00.7,0625.0,31.0
2021-02-04T16:07:00Z,00000200,01000000,0000.11,-000.30,0000.06,-000.27,-000.19,0000.21,0000.15,0000.03,0000.47,17.0,23.6,01.2,00.8,0625.0,31.0
2021-02-04T16:08:00Z,00000200,01000000,-000.26,0000.12,0000.06,-000.25,-000.14,0000.32,-000.27,-000.11,-000.56,17.0,23.6,01.2,00.8,0625.2,31.0
2021-02-04T16:09:00Z,00000200,01000000,-000.49,-000.04,0000.15,-000.08,-000.14,0000.13,-000.04,0000.17,0000.44,17.0,23.6,01.2,00.8,0624.9,31.0
2021-02-04T16:10:00Z,00000200,01000000,-000.38,0000.14,0000.11,0000.26,0000.18,-000.01,0000.10,0000.00,0000.00,17.0,23.6,01.2,00.8,0625.0,31.0
2021-02-04T16:11:00Z,00000200,01000000,-000.22,0000.30,0000.05,-000.16,-000.04,0000.10,0000.28,0000.24,0000.15,17.0,23.6,01.2,00.8,0625.1,31.0
2021-02-04T16:12:00Z,00000200,01000000,0000.01,0000.11,0000.07,0000.38,-000.24,-000.01,-000.08,-000.08,-000.13,17.0,23.6,01.2,00.8,0625.2,31.0
2021-02-04T16:13:00Z,00000200,01000000,0000.25,0000.15,0000.19,-000.08,0000.30,0000.01,-000.04,-000.36,-000.22,17.0,23.6,01.2,00.8,0625.2,31.0
2021-02-04T16:14:00Z,00000200,01000000,-000.14,0000.12,-000.05,0000.11,-000.07,-000.02,-000.15,0000.34,0000.51,17.0,23.6,01.2,00.8,0625.2,31.0
2021-02-04T16:15:00Z,00000200,01000000,-000.76,-000.14,0000.11,0000.03,-000.10,-000.05,-000.00,-000.29,-000.20,17.0,23.6,01.2,00.8,0625.3,31.0
2021-02-04T16:16:00Z,00000200,01000000,0000.44,0000.20,0000.01,0000.00,-000.08,0000.04,0000.32,0000.21,0000.08,17.0,23.5,01.3,00.8,0625.4,30.9
2021-02-04T16:17:00Z,00000200,01000000,-000.04,0000.01,0000.04,0000.49,0000.25,0000.11,0000.19,0000.24,0000.12,17.1,23.6,01.1,00.8,0625.5,31.0
2021-02-04T16:18:00Z,00000200,01000000,-000.01,-000.11,0000.14,-000.30,-000.16,-000.29,0000.12,0000.29,-000.09,17.2,23.6,01.1,00.7,0625.3,31.0
2021-02-04T16:19:00Z,00000200,01000000,0000.41,-000.10,0000.19,-000.17,0000.03,-000.05,-000.50,-000.33,0000.14,17.2,23.6,01.3,00.8,0625.6,31.0
2021-02-04T16:20:00Z,00000200,01000000,-000.13,0000.28,-000.20,-000.77,-000.07,-000.13,0000.41,0000.47,0000.09,17.2,23.6,01.2,00.8,0625.6,31.0
2021-02-04T16:21:00Z,00000200,01000000,-000.48,-000.15,0000.28,0000.51,0000.03,0000.14,-000.14,-000.29,-000.04,17.2,23.6,01.2,00.8,0625.6,31.0
2021-02-04T16:22:00Z,00000200,01000000,-000.23,0000.03,0000.10,0000.47,-000.04,0000.42,0000.28,-000.05,-000.26,17.2,23.6,01.1,00.7,0625.6,31.0
2021-02-04T16:23:00Z,00000200,01000000,-001.07,-000.20,0000.30,0000.06,-000.18,-000.23,-000.19,-000.01,-000.08,17.2,23.6,01.0,00.7,0625.6,31.0
2021-02-04T16:24:00Z,00000200,01000000,-000.30,0000.13,0000.30,-000.33,-000.22,0000.25,-000.25,0000.14,-000.04,17.2,23.6,01.2,00.8,0625.6,31.0
2021-02-04T16:25:00Z,00000200,01000000,-000.74,0000.04,0000.28,-000.20,0000.03,-000.05,-000.05,-000.02,0000.39,17.2,23.6,01.3,00.8,0625.5,31.0
2021-02-04T16:26:00Z,00000200,01000000,-000.35,0000.05,-000.13,-000.24,-000.27,0000.10,0000.40,-000.32,-000.27,17.2,23.6,01.2,00.8,0625.6,31.0
2021-02-04T16:27:00Z,00000200,01000000,-000.54,-000.29,-000.00,0000.16,-000.13,-000.19,-000.01,0000.06,-000.12,17.2,23.6,01.2,00.8,0625.5,31.0
2021-02-04T16:28:00Z,00000200,01000000,-000.14,-000.15,-000.07,-000.06,-000.02,-000.11,-000.05,0000.24,0000.26,17.2,23.6,01.3,00.9,0625.5,31.0
2021-02-04T16:29:00Z,00000200,01000000,-000.35,-000.14,-000.05,0000.18,-000.09,0000.07,0000.01,0000.40,-000.20,17.2,23.6,01.1,00.7,0625.7,31.0
2021-02-04T16:30:00Z,00000200,01000000,-000.22,0000.02,-000.15,0000.16,-000.17,0000.17,0000.28,-000.04,0000.70,17.2,23.6,01.1,00.8,0625.6,31.0
2021-02-04T16:31:00Z,00000200,01000000,0000.27,0000.01,0000.19,-000.01,0000.14,0000.24,-000.22,0000.07,-000.28,17.2,23.6,01.1,00.8,0625.5,31.0
2021-02-04T16:32:00Z,00000200,01000000,0000.03,0000.14,0000.22,-000.71,0000.04,-000.23,-000.11,-000.31,-000.26,17.2,23.6,01.1,00.8,0625.6,31.0
2021-02-04T16:33:00Z,00000200,01000000,-000.35,-000.21,-000.08,0000.05,-000.03,0000.12,0000.15,0000.33,0000.01,17.1,23.6,01.1,00.7,0625.7,31.0
2021-02-04T16:34:00Z,00000200,01000000,-000.00,-000.08,0000.06,-000.03,-000.18,-000.07,-000.24,-000.31,-000.01,17.1,23.6,01.1,00.8,0625.9,31.0
2021-02-04T16:35:00Z,00000200,01000000,-000.45,-000.09,-000.14,0000.03,-000.20,-000.27,0000.24,0000.34,0000.53,17.1,23.6,01.1,00.8,0625.8,31.0
2021-02-04T16:36:00Z,00000200,01000000,-000.21,-000.01,0000.22,0000.43,0000.02,-000.13,-000.03,-000.22,-000.67,17.1,23.6,01.2,00.8,0626.1,31.0
2021-02-04T16:37:00Z,00000200,01000000,-000.10,-000.01,0000.19,0000.00,-000.23,0000.02,0000.00,-000.41,0000.40,17.1,23.6,01.1,00.7,0626.0,31.0
2021-02-04T16:38:00Z,00000200,01000000,-000.41,-000.21,0000.30,0000.06,-000.09,0000.18,0000.24,0000.20,-000.14,17.1,23.6,01.2,00.8,0626.0,31.0
2021-02-04T16:39:00Z,00000200,01000000,0000.36,0000.05,0000.01,0000.26,-000.13,-000.07,-000.10,0000.43,-000.28,17.1,23.6,01.2,00.8,0626.3,30.9
2021-02-04T16:40:00Z,00000200,01000000,-000.21,0000.17,0000.29,0000.36,-000.01,0000.15,-000.18,-000.21,0000.06,17.1,23.6,01.1,00.7,0626.2,30.9
2021-02-04T16:41:00Z,00000200,01000000,-000.71,0000.22,0000.13,0000.59,-000.03,0000.07,0000.41,0000.05,0000.06,17.1,23.6,01.2,00.8,0626.2,30.9
2021-02-04T16:42:00Z,00000200,01000000,0000.13,-000.10,0000.17,-000.04,0000.12,0000.21,-000.34,-000.51,0000.29,17.0,23.6,01.1,00.8,0626.3,31.0
2021-02-04T16:43:00Z,00000200,01000000,-000.58,0000.04,0000.16,-000.10,0000.03,-000.11,0000.07,0000.19,-000.11,17.0,23.5,01.1,00.7,0626.3,31.0
2021-02-04T16:44:00Z,00000200,01000000,0000.06,-000.01,0000.42,0000.28,-000.12,0000.21,0000.02,0000.20,0000.14,17.0,23.5,01.2,00.8,0626.2,31.0
2021-02-04T16:45:00Z,00000200,01000000,-000.08,0000.15,0000.19,-000.22,-000.05,0000.02,-000.16,-000.68,-000.29,17.0,23.5,01.1,00.7,0626.2,31.0
2021-02-04T16:46:00Z,00000200,01000000,-000.92,0000.21,0000.16,-000.44,-000.15,-000.23,0000.28,0000.76,0000.40,17.0,23.5,01.1,00.7,0626.1,30.9
2021-02-04T16:47:00Z,00000200,01000000,0000.04,-000.16,0000.12,-000.21,0000.03,0000.09,-000.05,0000.10,0000.01,17.1,23.5,01.1,00.8,0626.1,31.0
2021-02-04T16:48:00Z,00000200,01000000,0000.20,0000.27,0000.08,-000.14,-000.18,-000.10,0000.08,0000.24,0000.24,17.2,23.6,01.2,00.8,0626.1,31.0
2021-02-04T16:49:00Z,00000200,01000000,0000.23,0000.07,-000.10,0000.08,-000.23,-000.13,0000.15,-000.17,-000.00,17.3,23.6,01.1,00.8,0626.2,31.0
2021-02-04T16:50:00Z,00000200,01000000,-000.77,-000.03,-000.01,0000.36,0000.01,0000.02,0000.10,0000.22,0000.11,17.3,23.7,01.1,00.8,0626.0,31.0
2021-02-04T16:51:00Z,00000200,01000000,-000.59,0000.22,0000.29,-000.34,-000.07,-000.23,0000.64,0000.20,0000.09,17.3,23.7,01.1,00.7,0626.0,31.0
2021-02-04T16:52:00Z,00000200,01000000,-000.36,0000.10,0000.37,-000.21,-000.11,0000.11,-000.67,-000.05,-000.24,17.4,23.7,01.2,00.8,0626.1,31.0
2021-02-04T16:53:00Z,00000200,01000000,0000.13,-000.22,0000.06,-000.37,-000.09,0000.03,0000.23,-000.15,0000.41,17.3,23.7,01.1,00.7,0625.8,31.0
2021-02-04T16:54:00Z,00000200,01000000,-000.22,0000.29,0000.02,0000.17,-000.08,0000.39,0000.23,0000.39,0000.18,17.3,23.7,01.1,00.7,0625.9,31.0
2021-02-04T16:55:00Z,00000200,01000000,0000.06,0000.04,0000.25,0000.03,-000.06,0000.04,-000.12,0000.07,-000.24,17.3,23.7,01.1,00.8,0625.9,31.0
2021-02-04T16:56:00Z,00000200,01000000,-000.38,0000.18,0000.10,0000.40,-000.04,0000.10,-000.22,-000.20,0000.02,17.3,23.7,01.0,00.7,0625.8,31.0
2021-02-04T16:57:00Z,00000200,41000000,,,,,,,0000.45,0000.14,-000.47,17.3,23.7,00.6,00.4,0626.0,31.0
2021-02-04T16:58:00Z,00000200,61000000,,,,,,,-000.66,-000.20,0000.05,17.0,23.7,01.0,00.6,0625.0,31.0
2021-02-04T16:59:00Z,00000200,21000000,,,,,,,-000.13,-000.35,0000.10,16.9,23.8,00.9,00.6,0624.9,31.0
